Location: *
(34.0486°S, 61.7880°E)
Time: 22:12:40
(UTC+00:00)

USA 81 - Pass Details

Date: 01 April 2020
Orbit: 785 x 788 km, 85.0° (Epoch: 01 June)

Event Time Altitude Azimuth Distance (km) Brightness Sun altitude
Rises 15:24:55 0° 356° (N) 3,263 7.2 -21.0°
Reaches altitude 10° 15:27:15 10° 355° (N) 2,343 6.5 -21.5°
Maximum altitude 15:32:31 84° 268° (W) 803 4.0 -22.5°
Drops below altitude 10° 15:37:52 10° 178° (S) 2,375 6.6 -23.6°
Sets 15:40:15 0° 177° (S) 3,312 7.4 -24.1°
